Saint David, ME

9:10 AM EST on February 25, 2017 (GMT -0500)
Northern Aroostook Regional

Weather History for KFVE - November, 2013

Change the Weather History Date:

Sunday, November 10, 2013

  Actual Average Record
Temperature  
Mean Temperature 28 °F 33 °F  
Max Temperature 30 °F 39 °F 54 °F (2011)
Min Temperature 26 °F 27 °F 12 °F (2004)
Degree Days  
Heating Degree Days 37    
Month to date heating degree days 301  
Since 1 July heating degree days 1372  
Cooling Degree Days 0    
Month to date cooling degree days 0  
Year to date cooling degree days 139  
Moisture  
Dew Point 25 °F    
Average Humidity 88    
Maximum Humidity 93    
Minimum Humidity 66    
Precipitation  
Precipitation 0.08 in 0.09 in 0.49 in (2011)
Month to date precipitation 0.39 0.92  
Year to date precipitation 30.82 29.04  
Sea Level Pressure  
Sea Level Pressure 29.76 in    
Wind  
Wind Speed 7 mph (East)    
Max Wind Speed 16 mph    
Max Gust Speed 20 mph    
Visibility 3 miles    
Events Snow    
T = Trace of Precipitation, MM = Missing Value Source: NWS Daily Summary

Daily Weather History Graph

Daily Weather History Graph

Search for Another Location

Airport or City:

Trip Planner

Search our weather history database for the weather conditions in past years. The results will help you decide how hot, cold, wet, or windy it might be!

Date:

Astronomy

Nov. 10, 2013 Rise Set
Actual Time 6:30 AM EST 4:03 PM EST
Civil Twilight 5:57 AM EST 4:36 PM EST
Nautical Twilight 5:20 AM EST 5:13 PM EST
Astronomical Twilight 4:44 AM EST 5:48 PM EST
Moon 12:32 PM EST (11/10) 11:48 PM EST (11/10)
Length of Visible Light 10h 38m
Length of Day
9h 33m
First Quarter, 55% of the Moon is Illuminated
Nov 10
First Quarter
Nov 17
Full
Nov 25
Last Quarter
Dec 2
New
Dec 9
First Quarter

Hourly Weather History & Observations

Time (EST) Temp. Windchill Dew Point Humidity Pressure Visibility Wind Dir Wind Speed Gust Speed Precip Events Conditions
12:53 AM 28.0 °F 24.2 °F 19.9 °F 72% 30.01 in 10.0 mi South 3.5 mph - N/A   Overcast
1:53 AM 28.0 °F - 19.0 °F 69% 30.01 in 10.0 mi Calm Calm - N/A   Overcast
2:53 AM 28.0 °F - 19.0 °F 69% 29.99 in 10.0 mi Calm Calm - N/A   Overcast
3:53 AM 27.0 °F 23.0 °F 19.9 °F 75% 29.96 in 10.0 mi ESE 3.5 mph - N/A   Overcast
4:53 AM 27.0 °F 18.7 °F 18.0 °F 69% 29.95 in 10.0 mi ESE 8.1 mph - N/A   Mostly Cloudy
5:53 AM 27.0 °F 18.0 °F 18.0 °F 69% 29.94 in 10.0 mi SE 9.2 mph - N/A   Mostly Cloudy
6:53 AM 27.0 °F 18.0 °F 19.0 °F 72% 29.94 in 10.0 mi SE 9.2 mph - N/A   Overcast
7:53 AM 28.0 °F 18.6 °F 19.0 °F 69% 29.93 in 10.0 mi SE 10.4 mph - N/A   Overcast
8:53 AM 30.0 °F 20.0 °F 19.9 °F 66% 29.91 in 10.0 mi SE 12.7 mph - N/A   Overcast
9:37 AM 28.4 °F 18.0 °F 21.2 °F 74% 29.87 in 5.0 mi SSE 12.7 mph - 0.00 in Snow Light Snow
9:53 AM 28.9 °F 20.4 °F 21.9 °F 75% 29.90 in 4.0 mi SSE 9.2 mph - 0.00 in Snow Light Snow
10:04 AM 28.4 °F 19.1 °F 23.0 °F 80% 29.86 in 2.5 mi SE 10.4 mph - 0.00 in Snow Light Snow
10:09 AM 28.4 °F 18.0 °F 23.0 °F 80% 29.86 in 1.8 mi SE 12.7 mph - 0.00 in Snow Light Snow
10:15 AM 28.4 °F 18.0 °F 23.0 °F 80% 29.86 in 1.2 mi SE 12.7 mph - 0.00 in Snow Light Snow
10:34 AM 28.4 °F 18.5 °F 24.8 °F 86% 29.85 in 1.2 mi SE 11.5 mph - 0.00 in Snow Light Snow
10:53 AM 28.0 °F 19.3 °F 25.0 °F 88% 29.87 in 1.2 mi SE 9.2 mph - 0.00 in Snow Light Snow
11:06 AM 28.4 °F 19.7 °F 24.8 °F 86% 29.83 in 0.8 mi SE 9.2 mph - 0.00 in Snow Light Snow
11:10 AM 28.4 °F 19.1 °F 24.8 °F 86% 29.83 in 1.0 mi SE 10.4 mph - 0.00 in Snow Light Snow
11:14 AM 28.4 °F 18.5 °F 24.8 °F 86% 29.82 in 1.5 mi ESE 11.5 mph - 0.00 in Snow Light Snow
11:17 AM 28.4 °F 19.1 °F 24.8 °F 86% 29.82 in 1.8 mi SE 10.4 mph - 0.00 in Snow Light Snow
11:25 AM 28.4 °F 21.2 °F 24.8 °F 86% 29.82 in 1.8 mi Variable 6.9 mph - 0.00 in Snow Light Snow
11:34 AM 28.4 °F 19.7 °F 24.8 °F 86% 29.81 in 1.5 mi ESE 9.2 mph - 0.00 in Snow Light Snow
11:46 AM 28.4 °F 20.4 °F 24.8 °F 86% 29.80 in 1.8 mi ESE 8.1 mph - 0.00 in Snow Light Snow
11:53 AM 28.9 °F 21.1 °F 25.0 °F 85% 29.83 in 1.2 mi ESE 8.1 mph - 0.00 in Snow Light Snow
12:14 PM 28.4 °F 20.4 °F 26.6 °F 93% 29.79 in 0.8 mi East 8.1 mph - 0.01 in Snow Light Snow
12:19 PM 28.4 °F 19.1 °F 24.8 °F 86% 29.79 in 1.0 mi East 10.4 mph - 0.01 in Snow Light Snow
12:40 PM 28.4 °F 21.2 °F 26.6 °F 93% 29.78 in 1.8 mi East 6.9 mph - 0.01 in Snow Light Snow
12:42 PM 28.4 °F 22.2 °F 26.6 °F 93% 29.78 in 1.5 mi East 5.8 mph - 0.01 in Snow Light Snow
12:44 PM 28.4 °F 20.4 °F 26.6 °F 93% 29.78 in 1.2 mi East 8.1 mph - 0.01 in Snow Light Snow
12:53 PM 28.9 °F 19.8 °F 26.1 °F 89% 29.80 in 0.8 mi East 10.4 mph - 0.01 in Snow Light Snow
12:59 PM 28.4 °F 18.5 °F 26.6 °F 93% 29.77 in 1.0 mi East 11.5 mph - 0.00 in Snow Light Snow
1:03 PM 28.4 °F 18.0 °F 26.6 °F 93% 29.76 in 1.5 mi East 12.7 mph 18.4 mph 0.00 in Snow Light Snow
1:07 PM 28.4 °F 18.5 °F 24.8 °F 86% 29.76 in 2.0 mi ESE 11.5 mph - 0.00 in Snow Light Snow
1:15 PM 28.4 °F 19.7 °F 26.6 °F 93% 29.76 in 3.0 mi ESE 9.2 mph 17.3 mph 0.00 in Snow Light Snow
1:23 PM 28.4 °F 19.7 °F 26.6 °F 93% 29.76 in 1.8 mi East 9.2 mph - 0.00 in Snow Light Snow
1:27 PM 28.4 °F 20.4 °F 26.6 °F 93% 29.75 in 1.5 mi ESE 8.1 mph - 0.00 in Snow Light Snow
1:35 PM 28.4 °F 21.2 °F 26.6 °F 93% 29.75 in 0.8 mi ESE 6.9 mph - 0.00 in Snow Light Snow
1:45 PM 28.4 °F 20.4 °F 26.6 °F 93% 29.75 in 1.5 mi ESE 8.1 mph - 0.01 in Snow Light Snow
1:47 PM 28.4 °F 21.2 °F 26.6 °F 93% 29.75 in 2.0 mi East 6.9 mph - 0.01 in Snow Light Snow
1:53 PM 28.9 °F 21.9 °F 26.1 °F 89% 29.78 in 2.5 mi East 6.9 mph - 0.01 in Snow Light Snow
2:07 PM 28.4 °F 20.4 °F 26.6 °F 93% 29.74 in 6.0 mi East 8.1 mph - 0.00 in Snow Light Snow
2:40 PM 28.4 °F 19.7 °F 26.6 °F 93% 29.73 in 1.8 mi East 9.2 mph - 0.00 in Snow Light Snow
2:42 PM 28.4 °F 19.7 °F 26.6 °F 93% 29.73 in 1.2 mi East 9.2 mph - 0.00 in Snow Light Snow
2:53 PM 28.9 °F 21.1 °F 27.0 °F 92% 29.76 in 0.8 mi East 8.1 mph - 0.00 in Snow Light Snow
3:10 PM 28.4 °F 20.4 °F 26.6 °F 93% 29.72 in 1.2 mi East 8.1 mph - 0.00 in Snow Light Snow
3:15 PM 28.4 °F 21.2 °F 26.6 °F 93% 29.72 in 1.8 mi East 6.9 mph - 0.01 in Snow Light Snow
3:17 PM 28.4 °F 19.1 °F 26.6 °F 93% 29.72 in 2.0 mi East 10.4 mph - 0.01 in Snow Light Snow
3:21 PM 28.4 °F 20.4 °F 26.6 °F 93% 29.72 in 3.0 mi East 8.1 mph - 0.01 in Snow Light Snow
3:28 PM 28.4 °F 21.2 °F 26.6 °F 93% 29.71 in 3.0 mi East 6.9 mph - 0.01 in Snow Light Snow
3:34 PM 28.4 °F 19.7 °F 26.6 °F 93% 29.71 in 1.8 mi East 9.2 mph - 0.01 in Snow Light Snow
3:37 PM 28.4 °F 20.4 °F 26.6 °F 93% 29.71 in 1.2 mi ENE 8.1 mph - 0.01 in Snow Light Snow
3:48 PM 28.4 °F 19.7 °F 26.6 °F 93% 29.71 in 0.8 mi ENE 9.2 mph - 0.01 in Snow Light Snow
3:53 PM 28.9 °F 21.9 °F 27.0 °F 92% 29.74 in 1.0 mi ENE 6.9 mph - 0.01 in Snow Light Snow
3:57 PM 28.4 °F 19.7 °F 26.6 °F 93% 29.71 in 0.8 mi ENE 9.2 mph - 0.00 in Snow Light Snow
4:08 PM 28.4 °F 20.4 °F 26.6 °F 93% 29.70 in 0.8 mi ENE 8.1 mph - 0.01 in Snow Light Snow
4:14 PM 28.4 °F 19.1 °F 26.6 °F 93% 29.70 in 1.5 mi ENE 10.4 mph - 0.01 in Snow Light Snow
4:16 PM 28.4 °F 21.2 °F 26.6 °F 93% 29.70 in 2.0 mi ENE 6.9 mph - 0.01 in Snow Light Snow
4:25 PM 28.4 °F 19.1 °F 26.6 °F 93% 29.70 in 4.0 mi ENE 10.4 mph - 0.01 in Snow Light Snow
4:28 PM 28.4 °F 20.4 °F 26.6 °F 93% 29.70 in 4.0 mi ENE 8.1 mph - 0.01 in Snow Light Snow
4:44 PM 28.4 °F 18.5 °F 26.6 °F 93% 29.69 in 4.0 mi ENE 11.5 mph 18.4 mph 0.01 in Snow Light Snow
4:53 PM 30.0 °F 20.5 °F 27.0 °F 88% 29.72 in 2.5 mi ENE 11.5 mph 19.6 mph 0.01 in Snow Light Snow
5:01 PM 28.4 °F 19.7 °F 26.6 °F 93% 29.69 in 3.0 mi ENE 9.2 mph 19.6 mph 0.00 in Snow Light Snow
5:24 PM 30.2 °F 22.6 °F 26.6 °F 86% 29.69 in 2.5 mi ENE 8.1 mph - 0.00 in Snow Light Snow
5:31 PM 30.2 °F 23.4 °F 26.6 °F 86% 29.69 in 1.8 mi ENE 6.9 mph - 0.01 in Snow Light Snow
5:36 PM 30.2 °F 21.9 °F 26.6 °F 86% 29.69 in 1.2 mi ENE 9.2 mph 16.1 mph 0.01 in Snow Light Snow
5:53 PM 30.0 °F 24.1 °F 27.0 °F 88% 29.71 in 1.2 mi ENE 5.8 mph - 0.01 in Snow Light Snow
6:12 PM 30.2 °F 23.4 °F 26.6 °F 86% 29.68 in 1.5 mi ENE 6.9 mph - 0.01 in Snow Light Snow
6:19 PM 30.2 °F 24.3 °F 26.6 °F 86% 29.68 in 1.2 mi ENE 5.8 mph - 0.01 in Snow Light Snow
6:41 PM 30.2 °F 23.4 °F 26.6 °F 86% 29.68 in 1.0 mi ENE 6.9 mph - 0.02 in Snow Light Snow
6:51 PM 30.2 °F 23.4 °F 26.6 °F 86% 29.68 in 1.2 mi NE 6.9 mph - 0.02 in Snow Light Snow
6:53 PM 30.0 °F 24.1 °F 27.0 °F 88% 29.71 in 1.2 mi ENE 5.8 mph - 0.02 in Snow Light Snow
6:58 PM 30.2 °F 24.3 °F 26.6 °F 86% 29.68 in 1.5 mi ENE 5.8 mph - 0.00 in Snow Light Snow
7:01 PM 30.2 °F 24.3 °F 26.6 °F 86% 29.68 in 1.8 mi East 5.8 mph - 0.00 in Snow Light Snow
7:21 PM 30.2 °F 23.4 °F 26.6 °F 86% 29.67 in 1.5 mi ENE 6.9 mph - 0.01 in Snow Light Snow
7:30 PM 28.4 °F 21.2 °F 26.6 °F 93% 29.67 in 2.0 mi ENE 6.9 mph - 0.01 in Snow Light Snow
7:53 PM 28.9 °F 22.8 °F 27.0 °F 92% 29.70 in 2.0 mi ENE 5.8 mph - 0.01 in Snow Light Snow
8:05 PM 28.4 °F 21.2 °F 26.6 °F 93% 29.67 in 3.0 mi ENE 6.9 mph - 0.00 in Snow Light Snow
8:16 PM 28.4 °F 22.2 °F 26.6 °F 93% 29.67 in 3.0 mi ENE 5.8 mph - 0.00 in Snow Light Snow
8:26 PM 28.4 °F 21.2 °F 26.6 °F 93% 29.67 in 3.0 mi NE 6.9 mph - 0.00 in Snow Light Snow
8:33 PM 28.4 °F 21.2 °F 26.6 °F 93% 29.67 in 3.0 mi ENE 6.9 mph - 0.00 in Snow Light Snow
8:40 PM 28.4 °F 21.2 °F 26.6 °F 93% 29.67 in 3.0 mi NE 6.9 mph - 0.00 in Snow Light Snow
8:53 PM 28.9 °F 21.1 °F 27.0 °F 92% 29.70 in 5.0 mi NE 8.1 mph - 0.00 in Snow Light Snow
9:04 PM 28.4 °F 20.4 °F 26.6 °F 93% 29.66 in 8.0 mi ENE 8.1 mph - 0.00 in   Overcast
9:53 PM 28.9 °F 23.9 °F 27.0 °F 92% 29.69 in 10.0 mi Variable 4.6 mph - 0.00 in   Overcast
10:53 PM 28.9 °F 22.8 °F 27.0 °F 92% 29.68 in 10.0 mi North 5.8 mph - N/A   Overcast
11:53 PM 28.9 °F 23.9 °F 26.1 °F 89% 29.68 in 10.0 mi NNW 4.6 mph - N/A   Overcast